Location: Titusville
(28.6119°N, 80.8078°W)
Time: 11:46:33
(UTC-04:00)

Envisat - Visible Passes

Search period start: 23 October 2018 00:00
Search period end: 02 November 2018 00:00
Orbit: 764 x 766 km, 98.2° (Epoch: 23 October)

Date Brightness Start Highest point End Pass type
(mag) Time Alt. Az. Time Alt. Az. Time Alt. Az.
23 Oct 3.2 20:40:52 10° S 20:45:54 70° WSW 20:50:59 10° NNW visible
24 Oct 3.2 20:04:26 10° SSE 20:09:16 46° ENE 20:14:06 10° N visible
24 Oct 5.7 21:45:48 10° SW 21:48:24 14° W 21:51:01 10° WNW visible
25 Oct 4.3 19:29:17 10° ESE 19:32:48 19° ENE 19:36:19 10° NNE visible
25 Oct 4.4 21:06:52 10° SSW 21:11:29 36° W 21:16:08 10° NNW visible
26 Oct 2.9 20:29:39 10° SSE 20:34:44 89° ENE 20:39:50 10° NNW visible
27 Oct 3.5 19:53:34 10° SE 19:58:08 35° ENE 20:02:44 10° N visible
27 Oct 5.4 21:33:39 10° SW 21:37:09 19° W 21:40:40 10° NW visible
28 Oct 4.5 19:19:00 10° E 19:21:44 15° ENE 19:24:28 10° NE visible
28 Oct 3.9 20:55:25 10° S 21:00:17 47° W 21:05:10 10° NNW visible
29 Oct 2.8 20:18:33 10° SSE 20:23:34 68° ENE 20:28:37 10° N visible
30 Oct 3.8 19:42:48 10° SE 19:47:02 27° ENE 19:51:16 10° NNE visible
30 Oct 5.0 21:21:50 10° SSW 21:25:55 24° W 21:30:01 10° NW visible
31 Oct 4.8 19:09:18 10° E 19:10:40 11° ENE 19:12:03 10° NE visible
31 Oct 3.3 20:44:05 10° S 20:49:05 62° W 20:54:07 10° NNW visible
01 Nov 3.0 20:07:32 10° SSE 20:12:25 52° ENE 20:17:20 10° N visible
01 Nov 5.9 21:49:31 10° WSW 21:51:37 12° W 21:53:43 10° WNW visible
